Torna al catalogo

CZ-4 DEB

AttivoSSO
NORAD 29040·DEBRIS·🇨🇳 China

Lanciato Oct 14, 1999 da Taiyuan Satellite Launch Center

Loading…

Prossimi Passaggi (prossime 24 ore)

TLE

AggiornatoSource: Space-Track

Epoca: Sep 14, 2026, 10:10 UTC

1 29040U 99057NK  26257.42376336  .00000408  00000-0  11839-3 0  9998
2 29040  98.5755 311.1387 0072794 299.0559  60.3355 14.48375046232728

Traccia CZ-4 DEB in tempo reale con AllMySat

Download on the App Store